sat.trackr.live / text

‹ back to catalog

STARLINK-6378

NORAD 57347 · 2023-099V

PAYLOAD ACTIVE UNKNOWN

§ Identity

Operator
Country
US
Launch date
2023-07-16
Launch site
AFETR
Launch vehicle
Mass (kg)
RCS (m²)

Purposes: comms

External: N2YO · Heavens-Above · Gunter

§ Orbital elements

Epoch: 2026-05-25T04:09:35.516736Z

Period
94.27 min
Inclination
43.0017°
Eccentricity
0.0000873
Mean motion
15.27581313 rev/d
Perigee alt
482.4 km
Apogee alt
483.6 km
Semi-major
6,861.2 km
B*
1.1972e-5
RAAN
183.8708°
Arg perigee
266.4489°
Mean anomaly
93.6263°
Rev number
15,773

§ Raw data

STARLINK-63781 57347U 23099V   26145.17332774  .00000068  00000+0  11972-4 0  99982 57347  43.0017 183.8708 0000873 266.4489  93.6263 15.27581313157733

JSON: /api/v1/satellites/57347 · /tle

For live sub-satellite position, see the globe view (requires WebGL).

§ Visibility from observer

Set your observer location to see the next 7 days of passes ≥ 10°. The values pass through the URL so the page stays shareable.

No JS? Fill the form by hand. The geolocation button needs JavaScript.